Weather History for Page, AZ

Change the Weather History Date:

Thursday, July 31, 2014

  Actual Average Record
Temperature  
Mean Temperature 86 °F -  
Max Temperature 98 °F 95 °F 104 °F (1972)
Min Temperature 73 °F 69 °F 63 °F (1968)
Cooling Degree Days 20    
Growing Degree Days 36 (Base 50)    
Moisture  
Dew Point 49 °F    
Average Humidity 31    
Maximum Humidity 57    
Minimum Humidity 10    
Precipitation  
Precipitation 0.03 in - - ()
Sea Level Pressure  
Sea Level Pressure 29.92 in    
Wind  
Wind Speed 7 mph (WSW)    
Max Wind Speed 20 mph    
Max Gust Speed 36 mph    
Visibility 10 miles    
Events Rain , Thunderstorm    
Averages and records for this station are not official NWS values.
T = Trace of Precipitation, MM = Missing Value Source: NWS Daily Summary

Daily Weather History Graph

Daily Weather History Graph

Search for Another Location

Airport:

Trip Planner

Search our weather history database for the weather conditions in past years. The results will help you decide how hot, cold, wet, or windy it might be!

Date:

Astronomy

Jul. 31, 2014 Rise Set
Actual Time 5:30 AM MST 7:33 PM MST
Civil Twilight 5:01 AM MST 8:02 PM MST
Nautical Twilight 4:26 AM MST 8:37 PM MST
Astronomical Twilight 3:48 AM MST 9:14 PM MST
Moon 9:53 AM MST (7/31) 9:56 PM MST (7/31)
Length of Visible Light 15h 00m
Length of Day
14h 02m
Waxing Crescent, 20% of the Moon is Illuminated
Jul 31
Waxing Crescent
Aug 3
First Quarter
Aug 10
Full
Aug 17
Last Quarter
Aug 25
New

Hourly Weather History & Observations

Time (MST) Temp. Dew Point Humidity Pressure Visibility Wind Dir Wind Speed Gust Speed Precip Events Conditions
12:53 AM 84.0 °F 48.0 °F 28% 29.86 in 10.0 mi Calm Calm - N/A   Clear
1:53 AM 82.0 °F 48.0 °F 30% 29.87 in 10.0 mi WNW 6.9 mph - N/A   Clear
2:53 AM 81.0 °F 48.9 °F 33% 29.87 in 10.0 mi NW 5.8 mph - N/A   Clear
3:53 AM 79.0 °F 48.0 °F 34% 29.87 in 10.0 mi NW 5.8 mph - N/A   Clear
4:53 AM 75.0 °F 48.9 °F 40% 29.89 in 10.0 mi WSW 3.5 mph - N/A   Clear
5:53 AM 75.9 °F 48.0 °F 37% 29.90 in 10.0 mi West 3.5 mph - N/A   Clear
6:53 AM 79.0 °F 48.9 °F 35% 29.91 in 10.0 mi Calm Calm - N/A   Clear
7:53 AM 82.0 °F 48.9 °F 31% 29.92 in 10.0 mi WNW 4.6 mph - N/A   Clear
8:53 AM 84.9 °F 48.9 °F 29% 29.91 in 10.0 mi North 6.9 mph - N/A   Clear
9:53 AM 87.1 °F 50.0 °F 28% 29.91 in 10.0 mi Calm Calm - N/A   Clear
10:53 AM 90.0 °F 51.1 °F 26% 29.90 in 10.0 mi North 6.9 mph - N/A   Clear
11:53 AM 91.9 °F 48.9 °F 23% 29.88 in 10.0 mi NNW 4.6 mph - N/A   Clear
12:53 PM 95.0 °F 43.0 °F 17% 29.84 in 10.0 mi Variable 3.5 mph - N/A   Clear
1:53 PM 95.0 °F 44.1 °F 17% 29.81 in 10.0 mi Calm Calm - N/A   Clear
2:53 PM 98.6 °F 42.8 °F 15% 30.03 in 10.0 mi North 16.1 mph 25.3 mph N/A   Partly Cloudy
3:53 PM 93.9 °F 46.9 °F 20% 29.81 in 10.0 mi ENE 17.3 mph - N/A   Clear
4:53 PM 93.9 °F 44.1 °F 18% 29.80 in 10.0 mi NE 12.7 mph - N/A   Clear
5:35 PM 93.0 °F 42.1 °F 17% 30.01 in 10.0 mi SE 10.4 mph 19.6 mph 0.00 in Rain , Thunderstorm Light Rain
5:53 PM 90.0 °F 46.0 °F 22% 29.81 in 10.0 mi South 19.6 mph 25.3 mph 0.00 in Thunderstorm Mostly Cloudy
6:16 PM 84.9 °F 50.0 °F 30% 30.06 in 10.0 mi SW 17.3 mph 29.9 mph N/A Thunderstorm Thunderstorm
6:32 PM 73.9 °F 57.9 °F 57% 30.10 in 2.0 mi SSW 19.6 mph 35.7 mph 0.03 in Rain , Thunderstorm Light Thunderstorms and Rain
6:40 PM 75.0 °F 57.0 °F 53% 30.10 in 9.0 mi SSW 17.3 mph 27.6 mph 0.03 in Rain , Thunderstorm Light Thunderstorms and Rain
6:50 PM 75.2 °F 55.4 °F 50% 30.09 in 10.0 mi South 18.4 mph 26.5 mph 0.03 in Rain Light Rain
6:53 PM 75.2 °F 57.2 °F 53% 30.08 in 10.0 mi South 18.4 mph 28.8 mph N/A Rain Light Rain
7:53 PM 77.0 °F 53.1 °F 43% 29.86 in 10.0 mi South 16.1 mph - 0.00 in   Clear
8:53 PM 77.0 °F 52.0 °F 42% 29.89 in 10.0 mi SSE 8.1 mph - N/A   Partly Cloudy
9:53 PM 79.0 °F 52.0 °F 39% 29.94 in 10.0 mi WSW 6.9 mph - N/A   Mostly Cloudy
10:53 PM 79.0 °F 52.0 °F 39% 29.91 in 10.0 mi SSW 10.4 mph - 0.00 in   Clear
11:53 PM 79.0 °F 48.9 °F 35% 29.94 in 10.0 mi WNW 10.4 mph 24.2 mph N/A   Overcast